Regional Weather Roundup
Issued by NWS

Home | Current Version | Previous Version | Graphics & Text | Print | Product List | Glossary On
Versions: 1 2 3 4 5 6 7 8 9 10 11 12 13 14 15 16 17 18 19 20 21 22 23 24 25 26 27 28 29 30 31 32 33 34 35 36 37 38 39 40 41 42 43 44 45 46 47 48
000
ASUS45 KCYS 032110
RWRWY

WYOMING REGIONAL WEATHER ROUNDUP
NATIONAL WEATHER SERVICE CHEYENNE WY
200 PM MST TUE MAR 03 2015

NOTE:  "FAIR" INDICATES FEW OR NO CLOUDS BELOW 12,000 FEET
WITH NO SIGNIFICANT WEATHER AND/OR OBSTRUCTIONS TO VISIBILITY.

WYZ001-032200-
YELLOWSTONE NATIONAL PARK

CITY           SKY/WX    TMP DP  RH WIND       PRES   REMARKS
LK YELLOWSTONE   N/A     15  -7  37 VRB7      29.73F WCI   5
W YELLOWSTONE  NOT AVBL

$$
WYZ002>013-054>058-071-098>099-032200-
NORTHERN WYOMING

CITY           SKY/WX    TMP DP  RH WIND       PRES   REMARKS
JACKSON        MOSUNNY   21  12  68 S6        29.76F WCI  14
CODY           FAIR      10   0  61 NE9       29.91F WCI  -2
GREYBULL       FAIR      20   1  43 NW14      29.97F WCI   7
WORLAND        LGT SNOW  17   8  67 NW9       29.97F WCI   6
SHERIDAN       FAIR      12  -1  56 NW10      29.99F WCI  -1
BUFFALO        CLOUDY     8  -1  66 N17       29.91F WCI -10
GILLETTE       PTSUNNY   12   1  61 NW13      29.93F WCI  -3
HULETT         CLOUDY    16   1  53 NW9       29.94F WCI   4
NEWCASTLE      MOCLDY    18   1  49 NW16G25   29.93F WCI   3

$$
WYZ014>020-022>026-101>103-032200-
CENTRAL WYOMING

CITY           SKY/WX    TMP DP  RH WIND       PRES   REMARKS
BIG PINEY      CLOUDY    25  16  68 VRB7      29.71S WCI  17
PINEDALE       LGT SNOW  21  16  79 S5        29.72R WCI  15
DUBOIS         FAIR      14   1  57 SE5       29.72F WCI   6
LANDER         CLOUDY    13   4  67 NE6       29.85F WCI   4
RIVERTON       CLOUDY    14   6  70 E5        29.88F WCI   6
CASPER         CLOUDY    11   3  70 SE3       29.87F HAZE
DOUGLAS        FLURRIES  13   6  74 NW8       29.90F WCI   2

$$
WYZ021-027>030-104>119-032200-
SOUTHERN WYOMING

CITY           SKY/WX    TMP DP  RH WIND       PRES   REMARKS
EVANSTON       FAIR      28  17  63 W16       29.75F WCI  16
FORT BRIDGER   FAIR      31  21  67 W14       29.76F WCI  20
ROCK SPRINGS   LGT SNOW  14   9  80 NE15      29.74S WCI  -1
DIXON          CLOUDY    35  23  62 SW16      29.68F WCI  25
RAWLINS        LGT SNOW  15   8  73 NE8       29.72S VSB 3/4 WCI   4
SARATOGA       LGT SNOW  18  14  86 N8        29.68F WCI   7
LARAMIE        LGT SNOW  17  11  77 SE20      29.64F WCI   1
CHEYENNE       FLURRIES  13   4  67 N7        29.77F WCI   3
TORRINGTON     MIX PCPN  19   6  57 N15       29.91F WCI   5
PINE BLUFFS    MOCLDY    19  10  68 N7        29.86R WCI  10

$$


USA.gov is the U.S. government's official web portal to all federal, state and local government web resources and services.